Regional Weather Roundup
Issued by NWS Green Bay, WI

Home | Current Version | Previous Version | Graphics & Text | Print | Product List | Glossary Off
Versions: 1 2 3 4 5 6 7 8 9 10 11 12 13 14 15 16 17 18 19 20 21 22 23 24 25 26 27 28 29 30 31 32 33 34 35 36 37 38 39 40 41 42 43 44 45 46 47 48 49 50

000
ASUS43 KGRB 220400
RWRGRB

NORTH-CENTRAL AND NORTHEAST WISCONSIN REGIONAL WEATHER ROUNDUP
NATIONAL WEATHER SERVICE GREEN BAY WI
1100 PM CDT THU SEP 21 2017

WIZ005-009-010>012-018-019-220500-
NORTH CENTRAL WISCONSIN

CITY           SKY/WX    TMP DP  RH WIND       PRES   REMARKS
IRONWOOD       PTCLDY    72  66  81 S12G18    29.94S
MANITOWISH WTR NOT AVBL
ARBOR VITAE    NOT AVBL
EAGLE RIVER    NOT AVBL
LAND O LAKES   NOT AVBL
RHINELANDER    CLEAR     67  67 100 SE3       30.01S
PHILLIPS       NOT AVBL
ANTIGO         NOT AVBL
TOMAHAWK       NOT AVBL
MERRILL        NOT AVBL
$$

WIZ013-073-220500-
NORTHEAST WISCONSIN

CITY           SKY/WX    TMP DP  RH WIND       PRES   REMARKS
IRON MOUNTAIN  PTCLDY    67  64  90 SE3       30.01S FOG
MARINETTE      CLOUDY    66  65  96 SE5       30.02S FOG
$$

WIZ017-030-035>037-045-220500-
CENTRAL WISCONSIN

CITY           SKY/WX    TMP DP  RH WIND       PRES   REMARKS
MEDFORD        NOT AVBL
WAUSAU         CLEAR     68  65  90 E5        29.98R
MOSINEE        NOT AVBL
MARSHFIELD     CLEAR     71  63  75 SE7       29.96S
WISC RAPIDS    CLEAR     72  66  81 SE6       29.98S
STEVENS POINT  NOT AVBL
WAUPACA        NOT AVBL
SHAWANO        NOT AVBL
CLINTONVILLE   NOT AVBL
WAUTOMA        CLEAR     69  67  93 CALM      29.99R
$$

WIZ038-039-048-051-220500-
FOX VALLEY

CITY           SKY/WX    TMP DP  RH WIND       PRES   REMARKS
NWS GREEN BAY  CLEAR     68  67  96 CALM      30.00S
APPLETON       MOCLDY    72  63  73 VRB6      29.99S
OSHKOSH        CLEAR     68  66  93 S5        29.99S
FOND DU LAC    CLEAR     71  66  84 SE6       30.00S
$$

WIZ022-050-052-220500-
EAST CENTRAL WISCONSIN

CITY           SKY/WX    TMP DP  RH WIND       PRES   REMARKS
EPHRAIM        NOT AVBL
WASHINGTON ISL NOT AVBL
STURGEON BAY   CLEAR     66  65  96 SE7       30.02S FOG
MANITOWOC      FOG       64  63  94 CALM      30.02S VSB 1/4
SHEBOYGAN      CLOUDY    65  65 100 CALM      30.02S FOG
$$

LMZ563-521-522-541>543-220500-
LAKESHORE

STATION/POSITION TIME  TEMP    WIND        PRES    VSBY  WAVE
                       AIR SEA DIR/SP/G                  HT/PER
                 (UTC) (F)     (DEG/KT/KT) (MB)    (MI)  (FT/S)
SHEBOYGAN LKSHOR 0300   70     220/  2/  2 1015.9F
KEWAUNEE LKSHORE 0330   64      CALM  /  1 1015.6S
NORTHPORT PIER   0340   68     170/  5/  8 1016.3S
N MID LAKE BUOY  0250   67 66  150/  4/  6 1017.0S         1
S GREEN BAY BUOY 0330   67 67  130/  6/  8 1015.7F
SISTER BAY LKSHO 0319   67     120/  6/  8   N/A
MENOMINEE LKSHOR 0324   66     160/  6/  8 1015.8
$$



USA.gov is the U.S. government's official web portal to all federal, state and local government web resources and services.